AirNav   ProFlight Series 2 Aviation Headset
 
 298 users online  

D14 Fertile Municipal Airport
Fertile, Minnesota, USA

GOING TO FERTILE?


FAA INFORMATION EFFECTIVE 18 JUNE 2020

Location

FAA Identifier: D14
Lat/Long: 47-33-06.8660N 096-17-31.9430W
47-33.114433N 096-17.532383W
47.5519072,-96.2922064
(estimated)
Elevation: 1135 ft. / 345.9 m (surveyed)
Variation: 05E (1985)
From city: 1 mile NW of FERTILE, MN
Time zone: UTC -5 (UTC -6 during Standard Time)
Zip code: 56540

Airport Operations

Airport use: Open to the public
Activation date: 12/1955
Control tower: no
ARTCC: MINNEAPOLIS CENTER
FSS: PRINCETON FLIGHT SERVICE STATION
NOTAMs facility: PNM (NOTAM-D service available)
Attendance: UNATNDD
Wind indicator: lighted
Segmented circle: no
Lights: ACTVT PAPI RWY 14 & 32 - CTAF. LIRL RWY 14/32 TO INCR INTST & ACTVT - CTAF.
Beacon: white-green (lighted land airport)
Operates sunset to sunrise.

Airport Communications

CTAF/UNICOM: 122.8

Nearby radio navigation aids

VOR radial/distance  VOR name  Freq  Var
TVFr180/31.3THIEF RIVER FALLS VOR/DME108.4008E

 
NDB name  Hdg/Dist  Freq  Var  ID
FOSSTON261/21.322403EFSE ..-. ... .
CROOKSTON140/21.740003ECKN -.-. -.- -.

Airport Services

Fuel available: 100LL
FUEL AVAILABLE 24 HR WITH CREDIT CARD.
Parking: tiedowns
Airframe service: NONE
Powerplant service: NONE
Bottled oxygen: NONE
Bulk oxygen: NONE

Runway Information

Runway 14/32

Dimensions: 3002 x 60 ft. / 915 x 18 m
Surface: asphalt, in fair condition
SVR CRACKS AND LOOSE ROCKS.
Runway edge lights: low intensity
RUNWAY 14  RUNWAY 32
Latitude: 47-33.314597N47-32.914265N
Longitude: 096-17.746065W096-17.318745W
Elevation: 1128.1 ft.1135.0 ft.
Traffic pattern: leftleft
Runway heading: 139 magnetic, 144 true319 magnetic, 324 true
Markings: basic, in fair conditionbasic, in fair condition
Visual slope indicator: 2-light PAPI on left (3.20 degrees glide path)2-light PAPI on left (3.70 degrees glide path)
Touchdown point: yes, no lightsyes, no lights

Airport Ownership and Management from official FAA records

Ownership: Publicly-owned
Owner: CITY OF FERTILE
PO BOX 628
FERTILE, MN 56540
Phone 218-945-3136
Manager: LISA LIDEN
PO BOX 628
FERTILE, MN 56540
Phone 218-945-3136
PHONE AT ARPT 218-945-6516.

Airport Operational Statistics

Aircraft based on the field: 2
Single engine airplanes: 2
    
Aircraft operations: avg 26/day *
81% local general aviation
19% transient general aviation
* for 12-month period ending 31 July 2018

Additional Remarks

BE ALERT FOR VEHICLE TRAFFIC ON TAXIWAYS.
FOR CD CTC MINNEAPOLIS ARTCC AT 651-463-5588.

Instrument Procedures

There are no published instrument procedures at D14.

Some nearby airports with instrument procedures:

D00 - Norman County Ada/Twin Valley Airport (18 nm S)
KFSE - Fosston Municipal Airport-Anderson Field (21 nm E)
KCKN - Crookston Municipal Airport Kirkwood Field (22 nm NW)
3N8 - Mahnomen County Airport (23 nm SE)
KTVF - Thief River Falls Regional Airport (31 nm N)
 
Loc | Ops | Rwys | IFR | FBO | Links
Com | Nav | Svcs | Stats | Notes
Area around D14 (Fertile Municipal Airport)
 
Road maps at: MapQuest Bing Google
 
Aerial photo
WARNING: Photo may not be current or correct
Aerial photo of D14 (Fertile Municipal Airport)
Photo by Alexander J. Krauss
Photo taken 14-Apr-2008

Do you have a better or more recent aerial photo of Fertile Municipal Airport that you would like to share? If so, please send us your photo.

 
Sectional chart

 
Airport distance calculator
Flying to Fertile Municipal Airport? Find the distance to fly.

From to D14

Sunrise and sunset
Times for 04-Jul-2020
 Local
(UTC-5)
 Zulu
(UTC)
Morning civil twilight04:5509:55
Sunrise05:3510:35
Sunset21:2402:24
Evening civil twilight22:0403:04

Current date and time
Zulu (UTC)  04-Jul-2020 06:58:27
Local (UTC-5)  04-Jul-2020 01:58:27
 
METAR
KFSE 
21nm E 
040655Z AUTO 13006KT 10SM CLR 20/16 A3009 RMK AO2
KCKN 
22nm NW 
040635Z AUTO 13008KT 10SM CLR 23/19 A3007 RMK AO2
K3N8 
23nm SE 
040655Z AUTO 10005KT 10SM CLR 22/19 A3008 RMK AO2 T02180191
KTVF 
31nm N 
040556Z AUTO 15007KT 10SM CLR 21/19 A3009 RMK AO2 LTG DSNT NW SLP183 T02110189 10311 20211 50007
TAF
KTVF 
31nm N 
040520Z 0406/0506 05015G25KT P6SM BKN060 FM040900 10005KT P6SM SCT060 BKN250 FM050200 15008KT P6SM BKN045 FM050300 13008KT P6SM VCTS BKN060CB
NOTAMs
Click for the latest NOTAMs
NOTAMs are issued by the DoD/FAA and will open in a separate window not controlled by AirNav.

 

 
 

FBO, Fuel Providers, and Aircraft Ground Support

  
 Business Name 
 
 Contact 
 
 Services / Description 
 
Fuel Prices
 
Comments
  
City of Fertile 218-945-3136
[web site]
Airport management, Aviation fuel

More info about City of Fertile
100LL
SS $4.19 
 Updated 01-Jul-2020
 
   write
SS=Self service
Update Fuel Prices
 

Would you like to see your business listed on this page?

 If your business provides an interesting product or service to pilots, flight crews, aircraft, or users of the Fertile Municipal Airport, you should consider listing it here.  To start the listing process, click on the button below
 
Add a business
 

Other Pages about Fertile Municipal Airport

City of Fertile
 
Update a link
 
Copyright © AirNav, LLC. All rights reserved. Privacy Policy  Contact